Location: Akdamlar
(36.8729°N, 30.5187°E)
Time: 18:31:56
(UTC+00:00)

X-37B - Visible Passes

Search period start: 23 June 2021 00:00
Search period end: 03 July 2021 00:00
Orbit: 386 x 389 km, 45.0° (Epoch: 10 June)

Date Brightness Start Highest point End Pass type
(mag) Time Alt. Az. Time Alt. Az. Time Alt. Az.
23 Jun 0.4 00:49:39 30° WNW 00:51:04 79° SSW 00:54:13 10° SE visible
23 Jun 0.8 18:58:06 10° WSW 19:01:15 72° NNW 19:04:26 10° ENE visible
23 Jun 3.3 20:35:44 10° WNW 20:37:46 21° NNW 20:37:46 21° NNW visible
24 Jun 2.4 01:30:17 16° S 01:30:17 16° S 01:31:27 10° S visible
24 Jun 0.6 17:59:47 10° SW 18:02:54 58° SSE 18:06:02 10° ENE visible
24 Jun 2.7 19:36:55 10° WNW 19:39:42 27° NNW 19:42:30 10° NE visible
24 Jun 3.9 21:14:41 10° NW 21:15:10 12° NW 21:15:10 12° NW visible
25 Jun 2.0 18:38:11 10° W 18:41:13 40° NNW 18:44:15 10° NE visible
25 Jun 3.3 20:16:02 10° NW 20:18:23 19° N 20:19:36 15° NNE visible
26 Jun 3.2 19:17:16 10° WNW 19:19:48 21° N 19:22:19 10° NE visible
26 Jun 3.6 20:54:42 10° NW 20:56:01 17° NNW 20:56:01 17° NNW visible
27 Jun 2.8 18:18:27 10° WNW 18:21:14 27° NNW 18:24:02 10° NE visible
27 Jun 3.3 19:56:14 10° NW 19:58:33 18° N 20:00:01 14° NE visible
28 Jun 3.3 18:57:34 10° NW 18:59:56 19° N 19:02:17 10° NE visible
28 Jun 3.3 20:34:33 10° NW 20:36:13 21° NNW 20:36:13 21° NNW visible
29 Jun 3.2 17:58:48 10° WNW 18:01:19 21° N 18:03:52 10° NE visible
29 Jun 3.0 19:36:14 10° NW 19:38:41 20° N 19:40:08 15° NE visible
30 Jun 3.2 18:37:45 10° NW 18:40:05 18° N 18:42:24 10° NE visible
30 Jun 2.8 20:14:21 10° NW 20:16:18 27° NNW 20:16:18 27° NNW visible
01 Jul 2.6 19:16:05 10° NW 19:18:48 25° NNE 19:20:12 18° NE visible
02 Jul 3.0 18:17:46 10° NW 18:20:13 20° N 18:22:41 10° ENE visible
02 Jul 2.0 19:54:09 10° NW 19:56:22 38° NNW 19:56:22 38° NNW visible
